Weather History for KTCM - January, 2014

Change the Weather History Date:

Wednesday, January 29, 2014

  Actual Average Record
Temperature  
Mean Temperature 46 °F -  
Max Temperature 50 °F 46 °F 59 °F (1992)
Min Temperature 42 °F 33 °F 6 °F (1980)
Degree Days  
Heating Degree Days 19    
Moisture  
Dew Point 46 °F    
Average Humidity 100    
Maximum Humidity 100    
Minimum Humidity 94    
Precipitation  
Precipitation 0.78 in - - ()
Sea Level Pressure  
Sea Level Pressure 29.76 in    
Wind  
Wind Speed 4 mph (SSW)    
Max Wind Speed 16 mph    
Max Gust Speed 21 mph    
Visibility 7 miles    
Events Rain    
Averages and records for this station are not official NWS values.
T = Trace of Precipitation, MM = Missing Value Source: NWS Daily Summary

Daily Weather History Graph

Daily Weather History Graph

Search for Another Location

Airport or City:

Trip Planner

Search our weather history database for the weather conditions in past years. The results will help you decide how hot, cold, wet, or windy it might be!

Date:

Astronomy

Jan. 29, 2014 Rise Set
Actual Time 7:38 AM PST 5:08 PM PST
Civil Twilight 7:05 AM PST 5:40 PM PST
Nautical Twilight 6:28 AM PST 6:17 PM PST
Astronomical Twilight 5:53 AM PST 6:53 PM PST
Moon 6:20 AM PST (1/29) 4:14 PM PST (1/29)
Length of Visible Light 10h 35m
Length of Day
9h 29m
Waning Crescent, 2% of the Moon is Illuminated
Jan 29
Waning Crescent
Jan 30
New
Feb 6
First Quarter
Feb 14
Full
Feb 22
Last Quarter

Hourly Weather History & Observations

Time (PST) Temp. Windchill Dew Point Humidity Pressure Visibility Wind Dir Wind Speed Gust Speed Precip Events Conditions
12:23 AM 44.6 °F - 44.6 °F 100% 29.90 in 4.0 mi SW 2.3 mph - N/A Rain Rain
12:38 AM 44.6 °F - 44.6 °F 100% 29.90 in 4.0 mi SW 2.3 mph - N/A Rain Light Rain
12:58 AM 43.9 °F - 43.9 °F 100% 29.90 in 5.0 mi SSE 2.3 mph - 0.15 in Rain Light Rain
1:08 AM 44.6 °F - 44.6 °F 100% 29.87 in 6.0 mi SSE 1.2 mph - N/A Rain Light Rain
1:33 AM 42.8 °F - 42.8 °F 100% 29.87 in 4.0 mi SSW 2.3 mph - N/A Rain Light Rain
1:43 AM 42.8 °F - 42.8 °F 100% 29.86 in 5.0 mi Calm Calm - N/A Rain Light Rain
1:48 AM 42.8 °F - 42.8 °F 100% 29.86 in 6.0 mi Calm Calm - N/A Rain Light Rain
1:53 AM 42.8 °F - 42.8 °F 100% 29.85 in 8.0 mi Calm Calm - N/A Rain Light Rain
1:58 AM 43.5 °F - 43.5 °F 100% 29.87 in 9.0 mi Calm Calm - 0.08 in Rain Light Rain
2:48 AM 44.6 °F - 44.6 °F 100% 29.85 in 5.0 mi Calm Calm - N/A Rain Light Rain
2:53 AM 44.6 °F - 44.6 °F 100% 29.85 in 5.0 mi SE 2.3 mph - N/A Rain Light Rain
2:58 AM 43.7 °F - 43.7 °F 100% 29.87 in 5.0 mi SE 2.3 mph - 0.10 in Rain Light Rain
3:08 AM 42.8 °F - 42.8 °F 100% 29.84 in 6.0 mi Calm Calm - N/A Rain Light Rain
3:13 AM 42.8 °F - 42.8 °F 100% 29.84 in 7.0 mi Calm Calm - N/A Rain Light Rain
3:23 AM 42.8 °F 40.1 °F 42.8 °F 100% 29.82 in 7.0 mi SE 4.6 mph - N/A Rain Light Rain
3:28 AM 42.8 °F 39.3 °F 42.8 °F 100% 29.81 in 8.0 mi SE 5.8 mph - N/A Rain Light Rain
3:39 AM 42.8 °F 40.1 °F 42.8 °F 100% 29.81 in 10.0 mi SE 4.6 mph - N/A   Mostly Cloudy
3:58 AM 43.5 °F - 43.5 °F 100% 29.83 in 10.0 mi Calm Calm - 0.04 in   Overcast
4:58 AM 43.9 °F - 43.9 °F 100% 29.81 in 10.0 mi Calm Calm - N/A   Overcast
5:28 AM 44.6 °F 42.2 °F 44.6 °F 100% 29.78 in 10.0 mi South 4.6 mph - N/A   Overcast
5:48 AM 44.6 °F 40.2 °F 44.6 °F 100% 29.79 in 10.0 mi South 8.1 mph - N/A   Overcast
5:58 AM 44.6 °F 40.2 °F 44.6 °F 100% 29.80 in 10.0 mi South 8.1 mph - N/A   Mostly Cloudy
6:08 AM 44.6 °F 40.7 °F 44.6 °F 100% 29.78 in 10.0 mi South 6.9 mph - N/A   Overcast
6:23 AM 46.4 °F 43.5 °F 46.4 °F 100% 29.78 in 10.0 mi SSW 5.8 mph - N/A   Overcast
6:28 AM 46.4 °F 42.4 °F 46.4 °F 100% 29.78 in 7.0 mi South 8.1 mph - N/A   Overcast
6:58 AM 45.9 °F 42.9 °F 45.9 °F 100% 29.79 in 10.0 mi South 5.8 mph - N/A   Overcast
7:03 AM 46.4 °F 43.5 °F 46.4 °F 100% 29.77 in 10.0 mi South 5.8 mph - N/A   Overcast
7:53 AM 46.4 °F 45.2 °F 46.4 °F 100% 29.76 in 10.0 mi South 3.5 mph - N/A   Overcast
7:58 AM 47.1 °F - 47.1 °F 100% 29.78 in 10.0 mi South 4.6 mph - 0.01 in   Overcast
8:20 AM 48.2 °F - 48.2 °F 100% 29.74 in 10.0 mi South 9.2 mph - N/A   Light Drizzle
8:29 AM 48.2 °F - 48.2 °F 100% 29.74 in 10.0 mi South 10.4 mph - N/A   Overcast
8:58 AM 48.4 °F - 48.4 °F 100% 29.74 in 10.0 mi South 5.8 mph - 0.00 in   Overcast
9:58 AM 49.3 °F - 49.1 °F 99% 29.72 in 10.0 mi Variable 5.8 mph - N/A   Overcast
10:03 AM 50.0 °F - 50.0 °F 100% 29.70 in 10.0 mi SSW 9.2 mph - N/A   Overcast
10:22 AM 50.0 °F - 50.0 °F 100% 29.70 in 10.0 mi SSW 8.1 mph - N/A Rain Light Rain
10:31 AM 50.0 °F - 50.0 °F 100% 29.70 in 10.0 mi South 15.0 mph 19.6 mph N/A   Overcast
10:34 AM 50.0 °F - 50.0 °F 100% 29.69 in 10.0 mi South 16.1 mph 19.6 mph N/A Rain Light Rain
10:39 AM 50.0 °F - 50.0 °F 100% 29.69 in 10.0 mi SSW 13.8 mph 20.7 mph N/A Rain Light Rain
10:45 AM 50.0 °F - 50.0 °F 100% 29.68 in 10.0 mi South 8.1 mph 20.7 mph N/A   Mostly Cloudy
10:50 AM 50.0 °F - 50.0 °F 100% 29.68 in 10.0 mi South 11.5 mph - N/A   Overcast
10:55 AM 50.0 °F - 50.0 °F 100% 29.68 in 9.0 mi South 9.2 mph - N/A   Overcast
10:57 AM 50.0 °F - 50.0 °F 100% 29.67 in 9.0 mi SSW 8.1 mph - N/A Rain Light Rain
10:58 AM 50.4 °F - 50.0 °F 99% 29.69 in 9.0 mi SSW 8.1 mph - 0.00 in Rain Light Rain
10:59 AM 50.0 °F - 50.0 °F 100% 29.67 in 8.0 mi SSW 9.2 mph - N/A   Overcast
11:01 AM 50.0 °F - 50.0 °F 100% 29.67 in 8.0 mi SSW 6.9 mph - N/A Rain Light Rain
11:11 AM 50.0 °F - 50.0 °F 100% 29.67 in 10.0 mi SSW 9.2 mph - N/A Rain Light Rain
11:13 AM 50.0 °F - 50.0 °F 100% 29.67 in 10.0 mi SSW 9.2 mph - N/A   Overcast
11:19 AM 50.0 °F - 50.0 °F 100% 29.67 in 10.0 mi SSW 6.9 mph 20.7 mph N/A Rain Light Rain
11:54 AM 50.0 °F - 50.0 °F 100% 29.66 in 10.0 mi SSW 10.4 mph - N/A Rain Light Rain
11:58 AM 49.6 °F - 49.5 °F 99% 29.68 in 10.0 mi SSW 12.7 mph 19.6 mph 0.03 in Rain Light Rain
12:29 PM 50.0 °F - 50.0 °F 100% 29.64 in 10.0 mi South 8.1 mph - N/A   Overcast
12:44 PM 50.0 °F - 50.0 °F 100% 29.63 in 10.0 mi South 11.5 mph - N/A   Overcast
12:58 PM 50.2 °F - 50.0 °F 99% 29.65 in 10.0 mi South 8.1 mph - 0.01 in   Overcast
1:14 PM 50.0 °F - 50.0 °F 100% 29.63 in 10.0 mi SSW 4.6 mph - N/A Rain Light Rain
1:40 PM 50.0 °F - 50.0 °F 100% 29.62 in 10.0 mi South 5.8 mph - N/A   Overcast
1:47 PM 50.0 °F - 50.0 °F 100% 29.62 in 10.0 mi South 5.8 mph - N/A Rain Light Rain
1:58 PM 50.2 °F - 50.0 °F 99% 29.64 in 9.0 mi SSW 5.8 mph - 0.01 in Rain Light Rain
2:15 PM 50.0 °F - 50.0 °F 100% 29.62 in 5.0 mi South 3.5 mph - N/A Rain Light Rain
2:35 PM 50.0 °F - 48.2 °F 94% 29.63 in 6.0 mi SW 15.0 mph 19.6 mph N/A Rain Light Rain
2:45 PM 48.2 °F - 48.2 °F 100% 29.63 in 5.0 mi SW 5.8 mph 18.4 mph N/A Rain Light Rain
2:48 PM 48.2 °F - 48.2 °F 100% 29.64 in 5.0 mi SW 5.8 mph - N/A Rain Light Rain
2:58 PM 48.4 °F - 48.4 °F 100% 29.66 in 1.8 mi SW 6.9 mph - 0.09 in Rain Heavy Rain
3:03 PM 48.2 °F - 48.2 °F 100% 29.64 in 1.2 mi SSW 5.8 mph - N/A Rain Heavy Rain
3:08 PM 48.2 °F - 48.2 °F 100% 29.65 in 1.5 mi SW 9.2 mph - N/A Rain Rain
3:13 PM 48.2 °F - 48.2 °F 100% 29.65 in 2.5 mi SW 6.9 mph - N/A Rain Light Rain
3:14 PM 48.2 °F - 48.2 °F 100% 29.65 in 2.5 mi SW 9.2 mph - N/A   Overcast
3:19 PM 48.2 °F - 48.2 °F 100% 29.66 in 3.0 mi SW 8.1 mph - N/A   Overcast
3:22 PM 48.2 °F - 48.2 °F 100% 29.66 in 3.0 mi SW 6.9 mph - N/A Rain Light Rain
3:50 PM 46.4 °F 43.5 °F 46.4 °F 100% 29.67 in 8.0 mi SW 5.8 mph - N/A   Overcast
3:55 PM 46.4 °F 42.9 °F 46.4 °F 100% 29.67 in 10.0 mi SW 6.9 mph - N/A   Overcast
3:57 PM 46.4 °F 43.5 °F 46.4 °F 100% 29.68 in 9.0 mi SW 5.8 mph - N/A Rain Light Rain
3:58 PM 47.1 °F - 47.1 °F 100% 29.70 in 9.0 mi SW 5.8 mph - 0.09 in Rain Light Rain
4:07 PM 46.4 °F - 46.4 °F 100% 29.68 in 8.0 mi West 1.2 mph - N/A   Light Drizzle
4:22 PM 46.4 °F - 46.4 °F 100% 29.69 in 5.0 mi WNW 1.2 mph - N/A Rain Light Rain
4:31 PM 46.4 °F - 46.4 °F 100% 29.70 in 4.0 mi North 1.2 mph - N/A   Overcast
4:34 PM 46.4 °F - 46.4 °F 100% 29.71 in 5.0 mi North 1.2 mph - N/A   Light Drizzle
4:44 PM 46.4 °F - 46.4 °F 100% 29.72 in 1.2 mi NNE 1.2 mph - N/A Rain Heavy Rain
4:49 PM 44.6 °F - 44.6 °F 100% 29.72 in 1.0 mi NNE 1.2 mph - N/A Rain Rain
4:54 PM 44.6 °F - 44.6 °F 100% 29.73 in 2.5 mi NNE 2.3 mph - N/A Rain Light Rain
4:58 PM 45.1 °F - 45.1 °F 100% 29.75 in 4.0 mi NNE 2.3 mph - 0.07 in Rain Light Rain
5:08 PM 44.6 °F - 44.6 °F 100% 29.73 in 3.0 mi Calm Calm - N/A Rain Light Rain
5:23 PM 44.6 °F - 44.6 °F 100% 29.74 in 6.0 mi Calm Calm - N/A   Light Drizzle
5:48 PM 44.6 °F - 44.6 °F 100% 29.75 in 4.0 mi Calm Calm - N/A   Light Drizzle
5:58 PM 44.2 °F - 44.2 °F 100% 29.77 in 3.0 mi NNE 2.3 mph - 0.02 in Rain Rain
6:18 PM 44.6 °F - 44.6 °F 100% 29.75 in 4.0 mi Calm Calm - N/A Rain Light Rain
6:53 PM 44.6 °F - 44.6 °F 100% 29.76 in 6.0 mi Calm Calm - N/A Rain Light Rain
6:58 PM 44.1 °F - 44.1 °F 100% 29.79 in 5.0 mi Calm Calm - 0.03 in Rain Light Rain
7:13 PM 44.6 °F - 44.6 °F 100% 29.78 in 4.0 mi Calm Calm - N/A   Overcast
7:33 PM 44.6 °F - 44.6 °F 100% 29.79 in 4.0 mi Calm Calm - N/A   Overcast
7:39 PM 44.6 °F - 44.6 °F 100% 29.79 in 3.0 mi Calm Calm - N/A   Overcast
7:49 PM 44.6 °F - 44.6 °F 100% 29.80 in 2.5 mi Calm Calm - N/A   Light Drizzle
7:52 PM 44.6 °F - 44.6 °F 100% 29.80 in 2.5 mi Calm Calm - N/A   Light Drizzle
7:57 PM 44.6 °F - 44.6 °F 100% 29.80 in 2.5 mi Calm Calm - N/A   Light Drizzle
7:58 PM 44.6 °F - 44.6 °F 100% 29.82 in 2.5 mi Calm Calm - 0.01 in   Light Drizzle
8:03 PM 44.6 °F - 44.6 °F 100% 29.80 in 3.0 mi Calm Calm - N/A   Light Drizzle
8:04 PM 44.6 °F - 44.6 °F 100% 29.80 in 4.0 mi Calm Calm - N/A   Overcast
8:36 PM 44.6 °F - 44.6 °F 100% 29.81 in 4.0 mi Calm Calm - N/A   Overcast
8:56 PM 44.6 °F - 44.6 °F 100% 29.82 in 5.0 mi SSW 2.3 mph - N/A   Light Drizzle
8:58 PM 44.1 °F 40.8 °F 44.1 °F 100% 29.84 in 5.0 mi SSW 5.8 mph - 0.01 in   Light Drizzle
9:03 PM 44.6 °F 42.2 °F 44.6 °F 100% 29.82 in 5.0 mi SW 4.6 mph - N/A Rain Light Rain
9:13 PM 44.6 °F 42.2 °F 44.6 °F 100% 29.82 in 4.0 mi SW 4.6 mph - N/A Rain Light Rain
9:18 PM 44.6 °F 43.1 °F 44.6 °F 100% 29.82 in 3.0 mi SW 3.5 mph - N/A Rain Light Rain
9:23 PM 44.6 °F - 44.6 °F 100% 29.82 in 4.0 mi SSW 2.3 mph - N/A Rain Light Rain
9:28 PM 44.6 °F - 44.6 °F 100% 29.82 in 3.0 mi SSE 1.2 mph - N/A Rain Light Rain
9:33 PM 44.6 °F 43.1 °F 44.6 °F 100% 29.83 in 3.0 mi South 3.5 mph - N/A Rain Light Rain
9:38 PM 44.6 °F - 44.6 °F 100% 29.83 in 4.0 mi NNE 1.2 mph - N/A Rain Light Rain
9:48 PM 44.6 °F 43.1 °F 44.6 °F 100% 29.82 in 5.0 mi South 3.5 mph - N/A   Light Drizzle
9:58 PM 44.2 °F 41.0 °F 44.2 °F 100% 29.84 in 5.0 mi SSW 5.8 mph - 0.03 in   Light Drizzle
10:00 PM 44.6 °F 41.4 °F 44.6 °F 100% 29.82 in 5.0 mi SSW 5.8 mph - N/A   Overcast
10:05 PM 44.6 °F 43.1 °F 44.6 °F 100% 29.82 in 6.0 mi SSW 3.5 mph - N/A   Overcast
10:10 PM 44.6 °F 43.1 °F 44.6 °F 100% 29.83 in 7.0 mi SSW 3.5 mph - N/A   Overcast
10:15 PM 44.6 °F 42.2 °F 44.6 °F 100% 29.83 in 10.0 mi SSW 4.6 mph - N/A   Overcast
10:25 PM 44.6 °F 41.4 °F 44.6 °F 100% 29.83 in 10.0 mi SSW 5.8 mph - N/A   Overcast
10:30 PM 44.6 °F 40.2 °F 44.6 °F 100% 29.83 in 10.0 mi SSW 8.1 mph - N/A   Overcast
10:35 PM 44.6 °F 40.7 °F 44.6 °F 100% 29.83 in 10.0 mi SSW 6.9 mph - N/A   Overcast
10:45 PM 44.6 °F 40.2 °F 44.6 °F 100% 29.83 in 10.0 mi SSW 8.1 mph - N/A   Overcast
10:58 PM 44.4 °F 39.0 °F 44.4 °F 100% 29.85 in 10.0 mi SSW 10.4 mph 17.3 mph 0.00 in   Overcast
11:43 PM 42.8 °F 35.8 °F 42.8 °F 100% 29.84 in 10.0 mi SSW 13.8 mph 19.6 mph N/A   Overcast